Regional Weather Roundup
Issued by NWS

Home | Current Version | Previous Version | Text Only | Print | Product List | Glossary Off
Versions: 1 2 3 4 5 6 7 8 9 10 11 12 13 14 15 16 17 18 19 20 21 22 23 24 25 26 27 28 29 30 31 32 33 34 35 36 37 38 39 40 41 42 43 44 45 46 47 48 49 50

000
ASUS43 KLSX 060407
RWRMO

WEATHER SUMMARY FOR MISSOURI
NATIONAL WEATHER SERVICE SPRINGFIELD MO
1000 PM CST THU MAR 05 2015

NOTE: "FAIR" INDICATES FEW OR NO CLOUDS BELOW 12,000 FEET WITH NO
       SIGNIFICANT WEATHER AND/OR OBSTRUCTIONS TO VISIBILITY.
       CURRENT SKY AND/OR WEATHER CONDITIONS ARE NOT AVAILABLE FOR
       CHILLICOTHE AND FARMINGTON.

MOZ001>031-035>038-043-044-053-054-060500-
...NORTHERN AND WESTERN MISSOURI...

CITY           SKY/WX    TMP DP  RH WIND       PRES   REMARKS
KANSAS CTY INT CLEAR     20   9  62 S9        30.46F WCI   9
KANSAS C DTWN  CLEAR     26  13  57 S8        30.49S WCI  18
LEE`S SUMMIT   CLEAR     25  12  58 S8        30.49R WCI  16
ST JOSEPH      CLEAR     22   7  52 S7        30.47S WCI  13
CHILLICOTHE      N/A     21   9  59 SE5       30.52F WCI  15
KIRKSVILLE     CLEAR     15  10  80 SE7       30.52S WCI   5

$$
MOZ066>068-077>081-088>096-101>105-060500-
...SOUTHWEST MISSOURI...

CITY           SKY/WX    TMP DP  RH WIND       PRES   REMARKS
SPRINGFIELD    CLEAR     20  13  74 SE6       30.51S WCI  12
JOPLIN         CLEAR     27  14  58 SE7       30.51S WCI  19

$$
MOZ032>034-039>042-045>050-055>058-069>072-060500-
...CENTRAL MISSOURI...

CITY           SKY/WX    TMP DP  RH WIND       PRES   REMARKS
COLUMBIA       CLEAR     19  10  68 E6        30.54S WCI  11
JEFFERSON CITY CLEAR     20   9  62 E3        30.57S
ROLLA          CLEAR     18  10  71 CALM      30.52R
SEDALIA        CLEAR     21  11  65 SE6       30.53S WCI  13
WHITEMAN AFB   CLEAR     22  11  63 SE6       30.51S WCI  14
WARRENSBURG    CLEAR     21  12  68 SE5       30.52S WCI  15
OSAGE BEACH    FAIR      18  10  73 CALM      30.54S

$$
MOZ051-052-059>065-060500-
...EAST CENTRAL MISSOURI...

CITY           SKY/WX    TMP DP  RH WIND       PRES   REMARKS
ST LOUIS INTL  CLEAR     16   4  59 E5        30.60R WCI   9
SPIRIT OF STL  CLEAR     17   7  64 E5        30.59R WCI  10
ST CHARLES     CLEAR     11   3  70 E7        30.61R WCI   0

$$
MOZ072>076-082>087-097>100-106>115-060500-
...SOUTH CENTRAL AND SOUTHEAST MISSOURI...

CITY           SKY/WX    TMP DP  RH WIND       PRES   REMARKS
CAPE GIRARDEAU PTCLDY    15   7  70 NE6       30.61R WCI   6
FARMINGTON     CLEAR     16  10  79 NE3       30.58R
POPLAR BLUFF   PTCLDY    18  11  74 CALM      30.61R
WEST PLAINS    CLEAR     16   7  67 CALM      30.54R

$$


USA.gov is the U.S. government's official web portal to all federal, state and local government web resources and services.